sat.trackr.live / text

‹ back to catalog

STARLINK-35152

NORAD 65530 · 2025-200L

PAYLOAD ACTIVE UNKNOWN

§ Identity

Operator
Country
US
Launch date
2025-09-06
Launch site
AFWTR
Launch vehicle
Mass (kg)
RCS (m²)

Purposes: comms

External: N2YO · Heavens-Above · Gunter

§ Orbital elements

Epoch: 2026-05-25T03:05:45.295008Z

Period
95.64 min
Inclination
97.4495°
Eccentricity
0.0001264
Mean motion
15.05637968 rev/d
Perigee alt
548.7 km
Apogee alt
550.4 km
Semi-major
6,927.7 km
B*
-2.9726e-4
RAAN
214.7904°
Arg perigee
247.8439°
Mean anomaly
112.2654°
Rev number
4,063

§ Raw data

STARLINK-351521 65530U 25200L   26145.12899647 -.00004344  00000+0 -29726-3 0  99972 65530  97.4495 214.7904 0001264 247.8439 112.2654 15.05637968 40630

JSON: /api/v1/satellites/65530 · /tle

For live sub-satellite position, see the globe view (requires WebGL).

§ Visibility from observer

Set your observer location to see the next 7 days of passes ≥ 10°. The values pass through the URL so the page stays shareable.

No JS? Fill the form by hand. The geolocation button needs JavaScript.